COSMOS 1563

Satellite information

Favourite Embed

Satellite Type and Status

PAYLOADIN ORBIT

Key statistics

Satellite COSMOS 1563 at a glance.

Uptime

15133

Days in orbit

Revolutions

≈ 12.5

Per day

Orbit

LEO

Low Earth Orbit

Inclination

74.0

Latest

Satellite identification and parameters

Extended collection of information and parameters for COSMOS 1563.

Object identification

Identified? True

Debris? False

Object name: COSMOS 1563

International designator: 1984-052E

Object number (NORAD): 15002

Object ID (CCSDS): 15002

Country: COMMONWEALTH OF INDEPENDENT STATES (CIS)

Current information (Y/N): Y

RCS size: MEDIUM

Orbital parameters

Period: 115.031 minutes

Inclination: 74.012 deg

SMA: 7834.964 km

Apoapsis: 1475.93 km

Periapsis: 1437.727 km

RAAN: 188.0654 deg

Eccentricy: 0.00243801

Argument of periapsis: 12.0829 deg

Mean anomaly: 16.3775 deg

Mean motion: 12.51835548 rev/day

Mean motion (dot): -0.00000007 rev/day2

B* drag term: 0.000058135907 1/REarth

Two-line elements (TLE)

Creation date: Nov. 1, 2025, 7:40 p.m.

Reference frame: TEME

Reference center: EARTH

Epoch: Nov. 1, 2025, 3:49 p.m. UTC

TLE line 0: 0 COSMOS 1563

TLE line 1: 1 15002U 84052E 25305.65906998 -.00000007 00000-0 58136-4 0 9999

TLE line 2: 2 15002 74.0120 188.0654 0024380 12.0829 16.3775 12.51835548625739

Live tracking on map

Real-time ground track for satellite COSMOS 1563.

In-orbit conjunctions

A list of the most updated potential collisions computed for object COSMOS 1563.

Target Orbit TCA Probability of collision Miss distance Type
THORAD DELTA 1 DEB MEO 2025-08-30 09:29:40 0.0002795896 138.0 (m) DEBRIS
DELTA 1 DEB SSO 2024-11-01 18:20:21 0.0002700553 947.0 (m) DEBRIS

Associated space launch

Military communications satellites

COSMOS 1563 was lifted into orbit during the mission ‘Kosmos-3M | Strela-1M 281-288’, on board a Kosmos-3M space rocket.

The launch took place on May 28, 1984, 9:52 p.m. from 132/2.

For more information about the launch, click the button.

Launch to space Kosmos-3M | Strela-1M 281-288
Kosmos-3M | Strela-1M 281-288

Agency: N/A

Status: Launch Successful

Launch date: May 28, 1984, 9:52 p.m. UTC

Rocket: Kosmos-3M

Launch pad: 132/2

Location: Plesetsk Cosmodrome, Russian Federation

...

Latest news about this satellite

There are no fresh news available about this satellite. Check back as we update our databases every day.


Newsletter sign-up

Weekly statistics, charts and insights to help you stay on top of the space industry.